Find Starlink 1363

NORAD ID: 45568 Int'l Des: 2020-025 Owner: SPXS Country: US Constellation: starlink operational
LEOCIRCULAR

实时位置

正在加载3D地球...

关于 Starlink 1363

正在加载描述...

即将过境

Passes for default location (London). Set your location on the main map for personalized predictions.

高度历史

Loading altitude history...

两行轨道根数

1 45568U 20025AP 26125.33335648 .00350585 60461-4 82926-3 0 9995
2 45568 53.0328 111.2326 0002855 63.6920 49.3266 15.96268974 6039
Epoch: May 5, 2026 • Age: 3 hours

当前状态

高度 293.3 km
速度 7.73 km/s
星下点 -24.67°S, 83.97°W
发射日期 Apr 22, 2020
运行时间 6 years
类型 internet

技术详情

分类 Payload
质量 260.00 kg
干质量 248.00 kg
总质量 260.00 kg
长度 0.20 m
直径 2.80 m
跨度 9.00 m
形状 Box + pan
制造商 SPXS
平台类型 Starlink
阶段状态 In Orbit
所有者/国家 SPXS/US

Most Searched